Flag for U.S.A. Weather past 2 weeks in Cumberland, Maryland, U.S.A.

Now
80 °F

Passing clouds.


Feels Like: 81 °F
Forecast: 59 / 80 °F
Wind: 7 mph from North

Location: Eastern West Virginia Regional Airport

Current Time: May 5, 2015 at 1:23:06 PM

Latest Report: May 5, 2015 at 12:53 PM


Visibility: 10 mi

Pressure: 30.24 "Hg

Humidity: 47%

Dew point: 58 °F

Location of CumberlandLocation

Historic Weather in Cumberland — Graph

°F

Cumberland temperature yesterday

Maximum temperature yesterday: 84 °F (at 2:53 PM)
Minimum temperature yesterday: 49 °F (at 3:53 AM)
Average temperature yesterday: 68 °F

Past Weeks' High & Low Weather Summary

 TemperatureHumidityPressure
High84 °F (May 4, 2:53 PM)97% (May 2, 7:00 AM)30.27 "Hg (May 2, 7:00 AM)
Low37 °F (Apr 23, 4:53 AM)21% (Apr 24, 3:53 PM)29.44 "Hg (Apr 20, 7:53 PM)
Average56 °F53%29.88 "Hg
* Reported Apr 20 11:53 AM — May 5 11:53 AM, Cumberland, Weather by CustomWeather, © 2015

Note: Actual official high and low records may vary slightly from our data, if they occured in-between our weather recording intervals... More about our weather records

Advertising

Cumberland weather history for previous 24 hours

 ConditionsComfort  
Time TempWeatherWind HumidityBarometerVisibility
11:53 AM
Tue, May 5
79 °FScattered clouds.3 mph45%30.26 "Hg10 mi
10:53 AM76 °FScattered clouds.3 mph50%30.27 "Hg10 mi
9:53 AM70 °FSunny.No wind64%30.26 "Hg10 mi
8:53 AM66 °FPassing clouds.N/A68%30.26 "Hg10 mi
7:53 AM64 °FPartly sunny.3 mph73%30.24 "Hg10 mi
6:53 AM60 °FOvercast.5 mph78%30.23 "Hg10 mi
5:53 AM59 °FPassing clouds.3 mph72%30.21 "Hg10 mi
4:53 AM62 °FOvercast.No wind67%30.20 "Hg10 mi
3:53 AM61 °FPassing clouds.5 mph67%30.19 "Hg10 mi
2:53 AM61 °FClear.3 mph70%30.19 "Hg10 mi
1:53 AM60 °FClear.3 mph72%30.19 "Hg10 mi
12:53 AM63 °FPassing clouds.3 mph68%30.18 "Hg10 mi
11:53 PM
Mon, May 4
66 °FPassing clouds.3 mph59%30.16 "Hg10 mi
10:53 PM68 °FPassing clouds.3 mph55%30.16 "Hg10 mi
9:53 PM69 °FClear.No wind51%30.16 "Hg10 mi
8:53 PM73 °FPassing clouds.5 mph44%30.14 "Hg10 mi
7:53 PM76 °FPassing clouds.6 mph42%30.13 "Hg10 mi
6:53 PM80 °FSunny.9 mph36%30.12 "Hg10 mi
5:53 PM80 °FScattered clouds.9 mph35%30.12 "Hg10 mi
4:53 PM81 °FPartly sunny.12 mph29%30.12 "Hg10 mi
3:53 PM84 °FScattered clouds.15 mph27%30.13 "Hg10 mi
2:53 PM84 °FPassing clouds.12 mph27%30.15 "Hg10 mi
1:53 PM83 °FPassing clouds.7 mph27%30.16 "Hg10 mi
Weather by CustomWeather, © 2015

See weather overviewHow to use our weather pages